QPF
0.09 0.10 0.09 0.08 0.07 0.07 0.09 0.11 0.12 0.13 0.12 0.09 0.08 0.07 0.08 0.07 0.09 0.06 0.05 0.06 0.05 0.04 0.04 0.03 0.01 0.00 0.00 0.01 0.01 0.01 0.00 0.00 0.00 0.00 0.00 0.01 0.01 0.01
0.07 0.07 0.07 0.07 0.08 0.09 0.10 0.14 0.16 0.17 0.13 0.09 0.06 0.06 0.07 0.09 0.11 0.11 0.09 0.06 0.04 0.03 0.02 0.01 0.01 0.00 0.00 0.00 0.00 0.00 0.00 0.00 0.00 0.00 0.00 0.00 0.00 0.00
0.07 0.06 0.07 0.08 0.08 0.08 0.08 0.08 0.10 0.12 0.11 0.07 0.05 0.05 0.05 0.05 0.04 0.04 0.05 0.05 0.03 0.02 0.02 0.01 0.01 0.00 0.00 0.00 0.00 0.00 0.00 0.00 0.00 0.00 0.00 0.00 0.00 0.00
0.09 0.07 0.07 0.09 0.08 0.06 0.06 0.06 0.07 0.08 0.08 0.07 0.05 0.05 0.05 0.04 0.04 0.04 0.04 0.03 0.02 0.02 0.02 0.01 0.01 0.01 0.00 0.00 0.00 0.00 0.00 0.00 0.00 0.00 0.00 0.00 0.00 0.00
0.07 0.05 0.05 0.06 0.06 0.06 0.05 0.06 0.07 0.07 0.08 0.06 0.05 0.06 0.06 0.06 0.05 0.04 0.04 0.03 0.03 0.02 0.03 0.02 0.01 0.00 0.00 0.00 0.00 0.00 0.00 0.00 0.00 0.00 0.00 0.00 0.00 0.00
0.05 0.05 0.05 0.04 0.05 0.05 0.04 0.05 0.06 0.06 0.07 0.07 0.08 0.08 0.06 0.06 0.06 0.04 0.03 0.03 0.03 0.03 0.02 0.02 0.01 0.00 0.00 0.00 0.01 0.01 0.01 0.01 0.00 0.00 0.00 0.00 0.00 0.00
0.03 0.04 0.04 0.04 0.04 0.04 0.03 0.04 0.05 0.04 0.05 0.07 0.07 0.07 0.06 0.05 0.04 0.03 0.03 0.03 0.03 0.03 0.03 0.02 0.02 0.02 0.02 0.02 0.01 0.01 0.01 0.01 0.00 0.00 0.00 0.00 0.00 0.00
0.03 0.03 0.03 0.02 0.02 0.02 0.02 0.03 0.04 0.06 0.08 0.08 0.09 0.09 0.07 0.06 0.05 0.04 0.04 0.04 0.03 0.03 0.03 0.03 0.03 0.03 0.02 0.02 0.02 0.01 0.01 0.00 0.00 0.00 0.00 0.00 0.00 0.00
0.03 0.03 0.02 0.02 0.03 0.03 0.03 0.04 0.04 0.05 0.06 0.07 0.08 0.06 0.06 0.05 0.05 0.05 0.05 0.04 0.04 0.04 0.04 0.03 0.03 0.03 0.02 0.02 0.02 0.02 0.01 0.01 0.00 0.00 0.00 0.00 0.00 0.01
0.02 0.02 0.03 0.04 0.04 0.05 0.05 0.05 0.05 0.04 0.04 0.04 0.03 0.03 0.04 0.05 0.05 0.05 0.05 0.06 0.04 0.04 0.05 0.03 0.03 0.03 0.02 0.02 0.02 0.01 0.01 0.01 0.01 0.01 0.00 0.00 0.00 0.01
0.02 0.02 0.03 0.03 0.03 0.03 0.03 0.03 0.03 0.03 0.04 0.04 0.03 0.04 0.03 0.03 0.04 0.05 0.06 0.06 0.04 0.04 0.05 0.04 0.03 0.03 0.03 0.03 0.02 0.01 0.01 0.01 0.01 0.01 0.00 0.00 0.00 0.00
0.05 0.04 0.03 0.03 0.02 0.02 0.03 0.03 0.02 0.02 0.03 0.04 0.03 0.03 0.03 0.03 0.03 0.04 0.05 0.05 0.04 0.03 0.04 0.04 0.03 0.04 0.03 0.03 0.03 0.02 0.02 0.02 0.01 0.01 0.01 0.00 0.00 0.00
0.04 0.05 0.04 0.02 0.02 0.02 0.02 0.02 0.03 0.03 0.04 0.06 0.05 0.04 0.04 0.03 0.03 0.04 0.05 0.04 0.04 0.04 0.04 0.04 0.04 0.04 0.04 0.03 0.03 0.03 0.03 0.02 0.02 0.01 0.01 0.01 0.00 0.00
0.03 0.03 0.02 0.01 0.01 0.02 0.02 0.02 0.02 0.02 0.02 0.04 0.05 0.06 0.06 0.05 0.04 0.04 0.05 0.05 0.05 0.05 0.05 0.05 0.05 0.05 0.05 0.04 0.03 0.03 0.03 0.02 0.02 0.02 0.02 0.02 0.01 0.01
0.02 0.02 0.02 0.02 0.02 0.02 0.02 0.02 0.02 0.02 0.02 0.03 0.04 0.04 0.04 0.04 0.05 0.05 0.05 0.05 0.06 0.05 0.05 0.06 0.06 0.06 0.06 0.06 0.05 0.04 0.03 0.03 0.03 0.03 0.03 0.03 0.03 0.02
0.01 0.01 0.01 0.02 0.02 0.02 0.02 0.02 0.02 0.03 0.03 0.04 0.04 0.04 0.04 0.05 0.05 0.06 0.07 0.07 0.07 0.06 0.05 0.06 0.07 0.07 0.07 0.07 0.08 0.07 0.05 0.04 0.04 0.05 0.05 0.04 0.05 0.04
0.01 0.01 0.01 0.02 0.02 0.03 0.03 0.03 0.03 0.03 0.03 0.04 0.04 0.04 0.04 0.04 0.04 0.04 0.05 0.06 0.06 0.05 0.05 0.06 0.07 0.08 0.09 0.09 0.08 0.07 0.06 0.05 0.04 0.05 0.05 0.05 0.04 0.04
0.01 0.02 0.02 0.02 0.03 0.03 0.03 0.03 0.03 0.03 0.03 0.04 0.04 0.04 0.04 0.04 0.04 0.04 0.05 0.06 0.06 0.06 0.05 0.06 0.07 0.07 0.07 0.06 0.05 0.05 0.04 0.04 0.04 0.04 0.04 0.04 0.04 0.04
0.05 0.03 0.03 0.03 0.03 0.02 0.03 0.03 0.03 0.04 0.05 0.05 0.05 0.05 0.05 0.05 0.04 0.05 0.05 0.06 0.06 0.06 0.06 0.07 0.07 0.07 0.07 0.05 0.03 0.03 0.04 0.04 0.04 0.04 0.03 0.04 0.04 0.04
0.06 0.04 0.03 0.04 0.04 0.03 0.03 0.03 0.02 0.03 0.03 0.03 0.04 0.04 0.04 0.05 0.05 0.05 0.05 0.05 0.05 0.05 0.06 0.06 0.07 0.06 0.06 0.05 0.04 0.03 0.04 0.05 0.05 0.04 0.04 0.04 0.03 0.04
0.02 0.02 0.03 0.04 0.04 0.03 0.03 0.03 0.03 0.03 0.03 0.04 0.04 0.04 0.05 0.05 0.05 0.05 0.05 0.05 0.05 0.05 0.05 0.05 0.06 0.08 0.08 0.07 0.06 0.04 0.03 0.04 0.04 0.05 0.06 0.06 0.06 0.05
0.04 0.03 0.03 0.03 0.03 0.04 0.04 0.04 0.04 0.03 0.03 0.03 0.04 0.04 0.05 0.06 0.06 0.06 0.07 0.07 0.07 0.06 0.05 0.05 0.07 0.10 0.10 0.08 0.06 0.04 0.04 0.04 0.04 0.05 0.06 0.07 0.07 0.06
0.05 0.04 0.03 0.03 0.03 0.04 0.04 0.04 0.04 0.03 0.03 0.03 0.04 0.05 0.05 0.06 0.07 0.07 0.07 0.07 0.08 0.08 0.08 0.07 0.07 0.08 0.09 0.07 0.06 0.05 0.05 0.06 0.07 0.08 0.09 0.10 0.09 0.06
MSLP
1013.34 1013.20 1013.11 1013.06 1013.01 1012.92 1012.76 1012.47 1012.03 1011.43 1010.69 1009.82 1008.88 1007.94 1007.04 1006.27 1005.66 1005.25 1005.05 1005.07 1005.29 1005.66 1006.13 1006.67 1007.22 1007.75 1008.24 1008.67 1009.03 1009.33 1009.57 1009.76 1009.92 1010.04 1010.14 1010.21 1010.26 1010.32
1013.54 1013.39 1013.28 1013.22 1013.16 1013.07 1012.91 1012.64 1012.22 1011.64 1010.91 1010.06 1009.13 1008.18 1007.27 1006.46 1005.79 1005.30 1005.01 1004.92 1005.01 1005.25 1005.61 1006.04 1006.51 1006.99 1007.46 1007.90 1008.31 1008.68 1009.00 1009.28 1009.52 1009.71 1009.84 1009.92 1009.95 1009.95
1013.82 1013.65 1013.52 1013.43 1013.35 1013.25 1013.09 1012.82 1012.43 1011.90 1011.23 1010.43 1009.56 1008.65 1007.76 1006.95 1006.24 1005.68 1005.28 1005.05 1004.97 1005.04 1005.22 1005.48 1005.81 1006.18 1006.58 1007.00 1007.42 1007.84 1008.25 1008.62 1008.96 1009.24 1009.45 1009.58 1009.63 1009.62
1014.13 1013.94 1013.79 1013.67 1013.56 1013.44 1013.28 1013.03 1012.68 1012.21 1011.61 1010.91 1010.12 1009.29 1008.45 1007.65 1006.93 1006.30 1005.79 1005.40 1005.14 1004.99 1004.95 1005.01 1005.14 1005.36 1005.64 1005.99 1006.39 1006.84 1007.31 1007.78 1008.22 1008.62 1008.93 1009.15 1009.27 1009.28
1014.43 1014.22 1014.04 1013.89 1013.76 1013.63 1013.46 1013.24 1012.94 1012.53 1012.03 1011.42 1010.74 1009.99 1009.23 1008.46 1007.73 1007.04 1006.42 1005.88 1005.43 1005.07 1004.80 1004.62 1004.54 1004.57 1004.70 1004.94 1005.29 1005.73 1006.24 1006.79 1007.34 1007.85 1008.29 1008.62 1008.84 1008.94
1014.64 1014.42 1014.23 1014.06 1013.91 1013.77 1013.61 1013.42 1013.16 1012.82 1012.40 1011.89 1011.30 1010.65 1009.95 1009.22 1008.48 1007.76 1007.05 1006.38 1005.76 1005.20 1004.71 1004.32 1004.03 1003.86 1003.84 1003.96 1004.23 1004.64 1005.15 1005.75 1006.38 1007.00 1007.57 1008.03 1008.37 1008.58
1014.74 1014.52 1014.31 1014.14 1013.98 1013.84 1013.69 1013.52 1013.29 1013.01 1012.65 1012.22 1011.71 1011.13 1010.48 1009.79 1009.06 1008.31 1007.54 1006.77 1006.02 1005.31 1004.66 1004.08 1003.62 1003.29 1003.12 1003.12 1003.30 1003.65 1004.15 1004.76 1005.45 1006.15 1006.82 1007.40 1007.87 1008.21
1014.69 1014.47 1014.27 1014.10 1013.95 1013.81 1013.67 1013.50 1013.30 1013.05 1012.74 1012.35 1011.88 1011.34 1010.74 1010.07 1009.35 1008.58 1007.78 1006.96 1006.14 1005.33 1004.58 1003.89 1003.31 1002.86 1002.57 1002.47 1002.56 1002.85 1003.30 1003.90 1004.61 1005.36 1006.10 1006.78 1007.36 1007.82
1014.51 1014.30 1014.11 1013.94 1013.79 1013.65 1013.51 1013.35 1013.16 1012.91 1012.60 1012.23 1011.77 1011.25 1010.65 1010.00 1009.28 1008.51 1007.71 1006.88 1006.04 1005.21 1004.42 1003.68 1003.05 1002.54 1002.18 1002.00 1002.02 1002.24 1002.64 1003.20 1003.89 1004.65 1005.43 1006.17 1006.84 1007.39
1014.22 1014.02 1013.83 1013.66 1013.52 1013.38 1013.23 1013.06 1012.84 1012.58 1012.25 1011.85 1011.38 1010.84 1010.24 1009.57 1008.86 1008.11 1007.32 1006.51 1005.69 1004.89 1004.12 1003.41 1002.78 1002.26 1001.88 1001.67 1001.64 1001.80 1002.14 1002.65 1003.29 1004.02 1004.79 1005.56 1006.28 1006.90
1013.88 1013.67 1013.48 1013.30 1013.14 1012.99 1012.82 1012.62 1012.37 1012.07 1011.70 1011.26 1010.75 1010.18 1009.55 1008.87 1008.15 1007.40 1006.64 1005.87 1005.11 1004.36 1003.65 1003.00 1002.42 1001.94 1001.58 1001.36 1001.31 1001.43 1001.71 1002.16 1002.74 1003.43 1004.17 1004.93 1005.67 1006.33
1013.52 1013.29 1013.08 1012.88 1012.70 1012.51 1012.30 1012.06 1011.78 1011.43 1011.01 1010.52 1009.97 1009.35 1008.68 1007.98 1007.25 1006.51 1005.76 1005.03 1004.32 1003.64 1003.01 1002.43 1001.92 1001.50 1001.18 1000.99 1000.94 1001.03 1001.27 1001.67 1002.19 1002.82 1003.52 1004.26 1004.99 1005.68
1013.21 1012.93 1012.68 1012.44 1012.20 1011.97 1011.72 1011.43 1011.10 1010.70 1010.24 1009.71 1009.11 1008.46 1007.75 1007.02 1006.27 1005.52 1004.78 1004.07 1003.39 1002.76 1002.19 1001.68 1001.24 1000.88 1000.62 1000.47 1000.43 1000.52 1000.75 1001.11 1001.58 1002.16 1002.82 1003.53 1004.25 1004.94
1012.95 1012.62 1012.30 1012.00 1011.71 1011.42 1011.11 1010.78 1010.40 1009.97 1009.47 1008.91 1008.28 1007.60 1006.86 1006.10 1005.33 1004.55 1003.80 1003.07 1002.40 1001.79 1001.25 1000.78 1000.39 1000.08 999.87 999.77 999.77 999.88 1000.10 1000.45 1000.90 1001.45 1002.07 1002.75 1003.46 1004.16
1012.78 1012.37 1011.98 1011.61 1011.25 1010.89 1010.53 1010.16 1009.75 1009.29 1008.77 1008.20 1007.56 1006.85 1006.10 1005.31 1004.50 1003.68 1002.89 1002.12 1001.42 1000.79 1000.23 999.77 999.40 999.14 998.97 998.91 998.95 999.09 999.35 999.70 1000.15 1000.69 1001.30 1001.97 1002.66 1003.37
1012.69 1012.21 1011.74 1011.30 1010.87 1010.46 1010.05 1009.64 1009.20 1008.74 1008.22 1007.64 1007.00 1006.29 1005.52 1004.70 1003.84 1002.97 1002.11 1001.28 1000.51 999.82 999.22 998.73 998.36 998.10 997.96 997.94 998.03 998.23 998.52 998.91 999.38 999.93 1000.55 1001.21 1001.90 1002.61
1012.66 1012.13 1011.61 1011.10 1010.62 1010.16 1009.72 1009.29 1008.84 1008.37 1007.86 1007.29 1006.65 1005.94 1005.15 1004.30 1003.38 1002.44 1001.50 1000.58 999.71 998.93 998.27 997.72 997.32 997.06 996.93 996.95 997.09 997.34 997.69 998.13 998.64 999.22 999.85 1000.52 1001.21 1001.93
1012.69 1012.13 1011.58 1011.05 1010.54 1010.06 1009.60 1009.15 1008.70 1008.23 1007.73 1007.16 1006.53 1005.80 1004.98 1004.08 1003.11 1002.08 1001.04 1000.01 999.04 998.16 997.41 996.80 996.35 996.07 995.96 996.01 996.20 996.51 996.92 997.42 997.98 998.59 999.24 999.92 1000.62 1001.33
1012.75 1012.21 1011.67 1011.14 1010.63 1010.15 1009.69 1009.24 1008.79 1008.32 1007.81 1007.24 1006.59 1005.83 1004.97 1004.01 1002.96 1001.85 1000.70 999.56 998.48 997.50 996.66 995.98 995.49 995.20 995.09 995.17 995.41 995.77 996.25 996.80 997.41 998.06 998.73 999.42 1000.12 1000.83
1012.83 1012.34 1011.84 1011.35 1010.88 1010.42 1009.97 1009.53 1009.08 1008.61 1008.08 1007.48 1006.79 1005.99 1005.06 1004.03 1002.89 1001.68 1000.43 999.19 998.00 996.93 996.01 995.28 994.76 994.45 994.36 994.46 994.74 995.16 995.69 996.30 996.95 997.63 998.32 999.02 999.72 1000.41
1012.91 1012.50 1012.08 1011.66 1011.24 1010.82 1010.40 1009.97 1009.52 1009.02 1008.46 1007.82 1007.07 1006.19 1005.19 1004.06 1002.83 1001.52 1000.17 998.84 997.57 996.43 995.45 994.68 994.13 993.82 993.75 993.88 994.20 994.67 995.24 995.89 996.58 997.29 998.00 998.70 999.40 1000.09
1012.97 1012.66 1012.33 1011.99 1011.64 1011.27 1010.88 1010.47 1010.00 1009.48 1008.88 1008.17 1007.34 1006.38 1005.29 1004.07 1002.74 1001.33 999.90 998.49 997.16 995.97 994.96 994.16 993.61 993.31 993.25 993.42 993.78 994.28 994.89 995.57 996.29 997.02 997.74 998.46 999.15 999.85
1013.00 1012.78 1012.55 1012.29 1012.01 1011.69 1011.34 1010.93 1010.45 1009.90 1009.24 1008.46 1007.56 1006.50 1005.32 1004.00 1002.59 1001.11 999.60 998.14 996.77 995.55 994.52 993.73 993.19 992.90 992.87 993.06 993.45 993.98 994.62 995.33 996.07 996.81 997.55 998.27 998.98 999.68
Thickness
5753 5752 5751 5751 5751 5751 5749 5745 5736 5729 5731 5737 5740 5743 5741 5739 5736 5733 5730 5727 5724 5721 5718 5715 5713 5710 5708 5706 5704 5701 5699 5697 5695 5694 5692 5691 5689 5687
5752 5750 5749 5749 5750 5749 5748 5746 5743 5736 5731 5736 5738 5740 5739 5736 5733 5731 5728 5725 5722 5719 5716 5714 5711 5708 5705 5703 5701 5699 5697 5695 5692 5690 5688 5687 5685 5683
5751 5749 5747 5747 5746 5746 5746 5744 5742 5738 5731 5734 5736 5736 5734 5732 5729 5727 5725 5722 5720 5717 5715 5712 5709 5706 5703 5701 5698 5696 5694 5691 5689 5686 5684 5682 5681 5679
5748 5747 5745 5745 5744 5743 5741 5740 5739 5738 5732 5728 5730 5730 5729 5728 5726 5723 5722 5720 5718 5715 5713 5710 5707 5704 5701 5698 5695 5693 5690 5687 5685 5683 5681 5679 5676 5674
5747 5744 5743 5741 5739 5739 5738 5736 5735 5735 5732 5727 5726 5726 5724 5724 5721 5719 5718 5717 5715 5713 5711 5708 5705 5702 5699 5696 5693 5690 5687 5684 5682 5680 5678 5675 5673 5671
5746 5743 5741 5739 5737 5736 5734 5733 5731 5729 5726 5723 5722 5720 5719 5718 5715 5712 5711 5712 5711 5711 5708 5705 5702 5699 5696 5693 5690 5687 5684 5681 5679 5677 5674 5672 5670 5667
5743 5741 5740 5738 5736 5733 5731 5729 5727 5723 5721 5718 5716 5714 5712 5710 5708 5708 5706 5706 5706 5706 5703 5701 5699 5696 5693 5690 5687 5685 5682 5680 5677 5674 5672 5669 5667 5664
5737 5736 5735 5734 5731 5729 5727 5724 5722 5719 5716 5712 5710 5708 5707 5707 5705 5703 5700 5698 5696 5700 5698 5696 5696 5693 5692 5689 5687 5684 5681 5678 5675 5672 5669 5666 5664 5661
5731 5729 5729 5730 5726 5724 5722 5720 5718 5716 5713 5710 5707 5706 5705 5705 5701 5698 5696 5694 5692 5695 5692 5690 5691 5689 5690 5689 5686 5683 5680 5676 5673 5670 5667 5663 5660 5657
5727 5725 5722 5721 5720 5718 5716 5714 5713 5711 5709 5707 5706 5705 5704 5702 5700 5697 5694 5692 5692 5691 5688 5683 5686 5685 5687 5685 5683 5680 5677 5673 5670 5666 5663 5660 5656 5653
5722 5719 5717 5714 5713 5711 5709 5707 5706 5705 5705 5703 5702 5700 5698 5696 5694 5690 5686 5682 5681 5683 5684 5680 5680 5680 5680 5680 5679 5677 5674 5670 5666 5662 5659 5655 5652 5648
5715 5713 5711 5708 5705 5703 5701 5699 5697 5697 5697 5697 5695 5694 5692 5691 5688 5685 5682 5677 5675 5676 5679 5675 5674 5672 5671 5675 5673 5670 5667 5664 5661 5658 5654 5650 5646 5642
5707 5705 5704 5700 5697 5695 5693 5692 5690 5689 5689 5688 5687 5686 5686 5685 5683 5681 5679 5675 5672 5671 5675 5671 5668 5665 5662 5663 5665 5664 5662 5659 5655 5652 5649 5646 5642 5638
5697 5697 5696 5693 5690 5687 5685 5685 5683 5681 5680 5679 5678 5677 5677 5676 5677 5676 5674 5672 5670 5669 5668 5665 5661 5658 5655 5653 5655 5657 5656 5654 5651 5648 5645 5641 5637 5634
5689 5688 5686 5683 5682 5680 5678 5676 5674 5673 5671 5669 5668 5669 5670 5670 5670 5669 5667 5666 5664 5663 5662 5659 5657 5654 5650 5648 5648 5648 5646 5646 5645 5642 5639 5636 5632 5629
5679 5677 5676 5675 5673 5672 5671 5668 5667 5665 5663 5661 5660 5661 5661 5661 5660 5659 5657 5655 5653 5653 5654 5652 5651 5648 5644 5643 5641 5640 5640 5638 5638 5635 5633 5630 5628 5626
5667 5666 5667 5666 5665 5664 5663 5662 5660 5657 5654 5653 5652 5650 5650 5650 5650 5650 5648 5646 5643 5643 5643 5643 5642 5641 5639 5636 5633 5633 5633 5632 5631 5629 5626 5623 5623 5623
5657 5658 5659 5658 5656 5655 5654 5652 5651 5649 5647 5644 5642 5641 5640 5639 5639 5639 5639 5637 5635 5634 5634 5634 5631 5629 5628 5629 5630 5627 5626 5624 5624 5622 5621 5617 5617 5618
5649 5650 5650 5649 5647 5646 5645 5643 5641 5639 5637 5634 5632 5631 5630 5629 5629 5628 5628 5627 5626 5626 5625 5624 5622 5619 5616 5616 5621 5622 5619 5617 5616 5614 5613 5612 5612 5613
5643 5641 5640 5639 5637 5636 5634 5632 5631 5629 5627 5624 5622 5621 5620 5619 5619 5618 5618 5617 5616 5615 5615 5615 5614 5611 5609 5609 5611 5613 5613 5610 5607 5606 5606 5606 5606 5606
5633 5631 5629 5628 5627 5625 5623 5621 5619 5616 5614 5612 5610 5609 5608 5608 5608 5608 5608 5606 5605 5605 5605 5606 5607 5606 5606 5603 5601 5603 5604 5603 5602 5599 5598 5597 5596 5596
5623 5621 5619 5617 5615 5613 5611 5609 5606 5603 5601 5599 5597 5596 5596 5596 5596 5596 5596 5596 5596 5597 5597 5598 5599 5598 5596 5594 5594 5594 5595 5595 5594 5592 5590 5589 5588 5587
5612 5610 5608 5606 5604 5602 5599 5596 5593 5590 5588 5585 5583 5583 5583 5583 5584 5585 5585 5586 5587 5587 5587 5588 5589 5589 5588 5587 5587 5587 5586 5585 5584 5582 5582 5582 5581 5581